Weather Roundup
Issued by NWS Chicago, IL

Home | Current Version | Previous Version | Text Only | Print | Product List | Glossary Off
Versions: 1 2 3 4 5 6 7 8 9 10 11 12 13 14 15 16 17 18 19 20 21 22 23 24 25 26 27 28 29 30 31 32 33 34 35 36 37 38 39 40 41 42 43 44 45 46 47 48 49 50

000
NZUS59 KLOT 281508
HRRLOT

CHICAGO AREA WEATHER ROUNDUP
NATIONAL WEATHER SERVICE CHICAGO/ROMEOVILLE IL
1000 AM CDT FRI AUG 28 2015

NOTE: "FAIR" INDICATES FEW OR NO CLOUDS BELOW 12,000 FEET WITH NO
SIGNIFICANT WEATHER AND/OR OBSTRUCTIONS TO VISIBILITY.

* THESE STATIONS ARE NOT UNDER NWS QUALITY CONTROL. THEY ALSO MAY NOT
  REPORT WEATHER SUCH AS PRECIPITATION OR FOG.

ILZ005-006-012>014-019>023-281600-
NORTHEAST ILLINOIS

CITY           SKY/WX    TMP DP  RH WIND       PRES   REMARKS
OHARE          CLOUDY    70  59  68 SW6       30.15R
MIDWAY         CLOUDY    71  58  63 S5        30.15R
AURORA         CLOUDY    65  60  84 S3        30.16R HAZE
LANSING*       PTSUNNY   69  60  75 SW6       30.17R
JOLIET*        CLOUDY    67  62  83 S3        30.16R
WAUKEGAN       PTSUNNY   70  60  70 SW7       30.14S
DUPAGE AIRPORT CLOUDY    66  59  78 S6        30.15R
WHEELING       PTSUNNY   71  58  63 CALM      30.16R
KANKAKEE*      CLOUDY    66  62  89 CALM      30.18R
MORRIS*        CLOUDY    65  60  85 CALM      30.14S
LEWIS AIRPORT* CLOUDY    66  59  78 SW3       30.16R
NORTHERLY IS     N/A     71  57  61 S2          N/A
$$

WIZ051-052-058>065-066-070>072-281600-
SOUTHEAST WISCONSIN

CITY           SKY/WX    TMP DP  RH WIND       PRES   REMARKS
MILWAUKEE      PTSUNNY   70  58  65 SW7       30.14S
KENOSHA*       PTSUNNY   71  60  68 SW7       30.15R
RACINE*        PTSUNNY   71  58  63 S5        30.16R
BURLINGTON     PTSUNNY   67  58  73 S5        30.14S
WAUKESHA       SUNNY     66  57  72 CALM      30.15S
WEST BEND      PTSUNNY   68  57  68 CALM      30.14S
$$

INZ001>003-010>013-019-020-281600-
NORTHWEST INDIANA

CITY           SKY/WX    TMP DP  RH WIND       PRES   REMARKS
GARY*          PTSUNNY   70  59  68 SW6       30.17R
MICHIGAN CITY* NOT AVBL
RENSSELAER*    NOT AVBL
VALPARAISO     MOSUNNY   68  61  78 S6        30.18R
$$

LMZ740>746-281600-
SOUTHERN LAKE MICHIGAN

STATION/POSITION TIME  SKY/WX   TEMP WIND        PRES    VSBY
                                AIR  DIR/SP/G
                 (UTC)          (F)  (DEG/KT/KT) (MB)    (MI)
HARRISON CRIB    1400            64  160/  6/  8   N/A
BURNHAM HARBOR   1500            71  200/  5/  6   N/A
CALUMET HARBOR   1400            67  210/  5/  7   N/A
BURNS HARBOR     1400            67  180/  8/ 11 1021.3S
MICHIGAN CITY    1400            65  140/  9/ 10   N/A
$$

ABBREVIATIONS USED IN REMARKS
   TC - TEMPERATURE IN CELSIUS
  WCI - WIND CHILL INDEX
   HX - HEAT INDEX
  VSB - VISIBILITY
$$



USA.gov is the U.S. government's official web portal to all federal, state and local government web resources and services.